EW4022 Weather Reports


Display with metric or nautical units.
time (UTC)temp
F
wind
direction
speed
MPH
gust
MPH
rain 1hr
in
rain 24hr
in
rain mn
in
humidity
%
barometer
mb
20260902204552 98 271 0.0 3.0 0.00 0.00 0.00 44 977.7
20260902204051 98 271 1.0 4.0 0.00 0.00 0.00 46 977.7
20260902203549 98 272 1.0 6.0 0.00 0.00 0.00 45 977.7
20260902203051 97 271 2.0 6.0 0.00 0.00 0.00 45 977.7
20260902202550 98 271 0.0 6.0 0.00 0.00 0.00 46 977.7
20260902202049 97 274 2.0 6.0 0.00 0.00 0.00 46 977.8
20260902201551 97 243 1.0 3.0 0.00 0.00 0.00 47 977.8
20260902201050 96 242 0.0 5.0 0.00 0.00 0.00 48 977.9
20260902200548 95 242 1.0 5.0 0.00 0.00 0.00 50 978.0
20260902200047 95 242 2.0 4.0 0.00 0.00 0.00 50 978.1
20260902195547 95 244 0.0 5.0 0.00 0.00 0.00 51 978.1
20260902195044 96 244 0.0 5.0 0.00 0.00 0.00 50 978.2
20260902194544 96 244 1.0 4.0 0.00 0.00 0.00 50 978.3
20260902194050 96 10 0.0 4.0 0.00 0.00 0.00 49 978.4
20260902193545 96 5 0.0 2.0 0.00 0.00 0.00 49 978.4
20260902193047 96 5 0.0 2.0 0.00 0.00 0.00 52 978.4
20260902192544 96 9 0.0 2.0 0.00 0.00 0.00 52 978.5
20260902192041 96 9 0.0 4.0 0.00 0.00 0.00 49 978.6
20260902191547 96 9 1.0 4.0 0.00 0.00 0.00 49 978.5
20260902191040 96 10 0.0 4.0 0.00 0.00 0.00 49 978.6
20260902190543 97 10 1.0 6.0 0.00 0.00 0.00 47 978.6
20260902190041 97 12 2.0 6.0 0.00 0.00 0.00 46 978.6
20260902185541 98 271 2.0 6.0 0.00 0.00 0.00 46 978.6
20260902185039 97 121 2.0 5.0 0.00 0.00 0.00 45 978.6
20260902184544 99 44 0.0 8.0 0.00 0.00 0.00 46 978.7
20260902184038 99 44 0.0 8.0 0.00 0.00 0.00 48 978.8
20260902183538 98 11 2.0 6.0 0.00 0.00 0.00 45 978.8
20260902183043 98 17 2.0 5.0 0.00 0.00 0.00 47 978.9
20260902182536 97 28 2.0 9.0 0.00 0.00 0.00 47 978.9
20260902182035 98 36 3.0 9.0 0.00 0.00 0.00 44 979.0
20260902181535 98 271 1.0 7.0 0.00 0.00 0.00 46 978.9
20260902181035 97 22 2.0 6.0 0.00 0.00 0.00 46 979.0
20260902180533 98 26 1.0 6.0 0.00 0.00 0.00 46 979.0
20260902180035 97 269 2.0 6.0 0.00 0.00 0.00 47 979.0
20260902175532 97 16 2.0 7.0 0.00 0.00 0.00 46 979.1
20260902175031 96 23 2.0 7.0 0.00 0.00 0.00 46 979.1
20260902174544 97 270 1.0 6.0 0.00 0.00 0.00 47 979.1
20260902174029 96 360 1.0 6.0 0.00 0.00 0.00 48 979.2
20260902173527 96 26 1.0 6.0 0.00 0.00 0.00 47 979.2
20260902173049 97 42 2.0 9.0 0.00 0.00 0.00 47 979.3
20260902172528 97 270 2.0 9.0 0.00 0.00 0.00 47 979.3
20260902172031 96 5 2.0 8.0 0.00 0.00 0.00 48 979.4
20260902171535 96 13 2.0 8.0 0.00 0.00 0.00 48 979.4
20260902171029 96 270 2.0 6.0 0.00 0.00 0.00 47 979.4
20260902170526 96 11 1.0 6.0 0.00 0.00 0.00 49 979.5
20260902170026 96 11 1.0 9.0 0.00 0.00 0.00 47 979.5
20260902165530 95 61 3.0 10.0 0.00 0.00 0.00 47 979.7
20260902165027 96 11 3.0 10.0 0.00 0.00 0.00 48 979.7
20260902164524 96 9 2.0 5.0 0.00 0.00 0.00 48 979.8
20260902164023 95 14 1.0 6.0 0.00 0.00 0.00 49 979.8
20260902163521 95 15 2.0 6.0 0.00 0.00 0.00 46 980.0
20260902163021 95 18 2.0 7.0 0.00 0.00 0.00 49 980.1
20260902162518 94 97 1.0 6.0 0.00 0.00 0.00 50 980.1
20260902162019 94 5 1.0 6.0 0.00 0.00 0.00 53 980.1
20260902161518 94 12 2.0 6.0 0.00 0.00 0.00 52 980.2
20260902161019 94 360 1.0 4.0 0.00 0.00 0.00 57 980.3
20260902160515 93 271 0.0 6.0 0.00 0.00 0.00 59 980.3
20260902160016 93 271 1.0 5.0 0.00 0.00 0.00 58 980.4
20260902155515 92 271 1.0 4.0 0.00 0.00 0.00 59 980.3
20260902155013 92 19 0.0 5.0 0.00 0.00 0.00 60 980.5
20260902154513 92 19 3.0 5.0 0.00 0.00 0.00 59 980.5
20260902154013 92 270 2.0 4.0 0.00 0.00 0.00 59 980.5
20260902153509 92 239 1.0 6.0 0.00 0.00 0.00 61 980.6
20260902153009 91 189 1.0 6.0 0.00 0.00 0.00 62 980.7
20260902152507 91 5 3.0 6.0 0.00 0.00 0.00 62 980.6
20260902152006 91 32 2.0 6.0 0.00 0.00 0.00 63 980.7
20260902151505 90 51 1.0 5.0 0.00 0.00 0.00 63 980.8
20260902151003 90 38 1.0 6.0 0.00 0.00 0.00 65 980.8
20260902150504 89 11 2.0 8.0 0.00 0.00 0.00 64 980.8
20260902150005 89 251 2.0 8.0 0.00 0.00 0.00 64 980.8
20260902145502 89 5 2.0 8.0 0.00 0.00 0.00 65 980.7
20260902145059 88 29 1.0 5.0 0.00 0.00 0.00 66 980.7
20260902144601 88 240 2.0 5.0 0.00 0.00 0.00 66 980.7
20260902144059 88 13 2.0 5.0 0.00 0.00 0.00 68 980.7
20260902143558 87 15 2.0 4.0 0.00 0.00 0.00 69 980.7
20260902143055 86 15 1.0 8.0 0.00 0.00 0.00 69 980.7
20260902142554 86 360 2.0 8.0 0.00 0.00 0.00 70 980.7
20260902142053 86 270 2.0 6.0 0.00 0.00 0.00 71 980.7
20260902141606 85 9 1.0 6.0 0.00 0.00 0.00 71 980.6
20260902141050 85 261 2.0 7.0 0.00 0.00 0.00 72 980.6
20260902140549 84 266 1.0 6.0 0.00 0.00 0.00 72 980.6
20260902140048 84 271 2.0 5.0 0.00 0.00 0.00 73 980.6
20260902135547 83 5 1.0 6.0 0.00 0.00 0.00 74 980.6
20260902135045 83 29 1.0 6.0 0.00 0.00 0.00 74 980.5
20260902134545 83 5 2.0 7.0 0.00 0.00 0.00 74 980.5
20260902134044 82 30 2.0 6.0 0.00 0.00 0.00 74 980.6
20260902133543 82 259 2.0 5.0 0.00 0.00 0.00 75 980.6
20260902133052 82 257 2.0 5.0 0.00 0.00 0.00 76 980.5
20260902132540 81 271 2.0 6.0 0.00 0.00 0.00 76 980.5
20260902132042 81 273 2.0 6.0 0.00 0.00 0.00 76 980.4
20260902131549 81 271 1.0 6.0 0.00 0.00 0.00 77 980.4
20260902131038 80 204 2.0 6.0 0.00 0.00 0.00 78 980.5
20260902130537 80 43 2.0 6.0 0.00 0.00 0.00 78 980.6
20260902130035 80 273 2.0 6.0 0.00 0.00 0.00 79 980.5
20260902125534 79 271 2.0 6.0 0.00 0.00 0.00 80 980.5
20260902125034 79 25 1.0 4.0 0.00 0.00 0.00 81 980.5
20260902124533 78 271 0.0 4.0 0.00 0.00 0.00 82 980.6
20260902124033 78 271 1.0 4.0 0.00 0.00 0.00 83 980.6
20260902123530 77 271 1.0 4.0 0.00 0.00 0.00 84 980.5
20260902123036 77 271 1.0 4.0 0.00 0.00 0.00 84 980.6
20260902122528 76 271 1.0 6.0 0.00 0.00 0.00 85 980.6
20260902122028 76 271 1.0 6.0 0.00 0.00 0.00 85 980.6
20260902121525 75 271 1.0 5.0 0.00 0.00 0.00 86 980.6
20260902121024 75 187 2.0 5.0 0.00 0.00 0.00 87 980.6
20260902120524 74 263 1.0 4.0 0.00 0.00 0.00 87 980.6
20260902120032 74 261 0.0 4.0 0.00 0.00 0.00 88 980.7
20260902115524 74 259 0.0 3.0 0.00 0.00 0.00 88 980.6
20260902115028 74 259 0.0 3.0 0.00 0.00 0.00 88 980.5
20260902114535 73 259 1.0 3.0 0.00 0.00 0.00 89 980.6
20260902114022 73 259 0.0 3.0 0.00 0.00 0.00 89 980.6
20260902113522 73 259 1.0 4.0 0.00 0.00 0.00 89 980.6
20260902113021 73 259 0.0 3.0 0.00 0.00 0.00 89 980.6
20260902112522 73 259 0.0 3.0 0.00 0.00 0.00 90 980.5
20260902112021 72 259 0.0 3.0 0.00 0.00 0.00 90 980.5
20260902111520 72 259 0.0 3.0 0.00 0.00 0.00 90 980.5
20260902111020 72 259 0.0 2.0 0.00 0.00 0.00 90 980.4
20260902110525 72 259 0.0 2.0 0.00 0.00 0.00 90 980.4
20260902110019 72 259 0.0 2.0 0.00 0.00 0.00 90 980.4
20260902105524 72 259 0.0 2.0 0.00 0.00 0.00 90 980.3
20260902105019 72 259 0.0 3.0 0.00 0.00 0.00 90 980.3
20260902104522 72 259 0.0 3.0 0.00 0.00 0.00 90 980.3
20260902104020 72 259 0.0 2.0 0.00 0.00 0.00 90 980.3
20260902103518 72 259 0.0 2.0 0.00 0.00 0.00 91 980.2
20260902103022 72 259 0.0 2.0 0.00 0.00 0.00 91 980.2
20260902102521 72 259 0.0 2.0 0.00 0.00 0.00 91 980.3
20260902102017 72 259 0.0 2.0 0.00 0.00 0.00 91 980.3
20260902101517 72 257 0.0 2.0 0.00 0.00 0.00 91 980.2
20260902101017 71 257 0.0 1.0 0.00 0.00 0.00 91 980.1
20260902100516 71 257 0.0 1.0 0.00 0.00 0.00 91 980.1
20260902100015 71 257 0.0 1.0 0.00 0.00 0.00 91 980.0
20260902095517 71 257 0.0 0.0 0.00 0.00 0.00 91 980.1
20260902095116 71 257 0.0 1.0 0.00 0.00 0.00 91 980.1
20260902094516 72 257 0.0 1.0 0.00 0.00 0.00 91 980.2
20260902094015 72 257 0.0 1.0 0.00 0.00 0.00 91 980.2
20260902093514 72 257 0.0 1.0 0.00 0.00 0.00 91 980.2
20260902093015 72 257 0.0 1.0 0.00 0.00 0.00 91 980.1
20260902092514 72 257 0.0 1.0 0.00 0.00 0.00 91 980.1
20260902092014 72 257 0.0 1.0 0.00 0.00 0.00 91 980.1
20260902091518 72 257 0.0 1.0 0.00 0.00 0.00 91 980.1
20260902091019 72 257 0.0 1.0 0.00 0.00 0.00 91 980.0
20260902090515 72 257 0.0 1.0 0.00 0.00 0.00 91 980.0
20260902090015 72 257 0.0 1.0 0.00 0.00 0.00 90 980.0
20260902085513 72 257 0.0 1.0 0.00 0.00 0.00 90 979.9
20260902085013 72 257 0.0 2.0 0.00 0.00 0.00 90 979.9
20260902084513 72 257 0.0 2.0 0.00 0.00 0.00 90 979.9
20260902084013 72 257 0.0 0.0 0.00 0.00 0.00 90 979.8
20260902083512 72 257 0.0 2.0 0.00 0.00 0.00 90 979.9
20260902083011 72 257 0.0 2.0 0.00 0.00 0.00 90 979.8
20260902082512 72 257 0.0 0.0 0.00 0.00 0.00 90 979.8
20260902082011 72 257 0.0 1.0 0.00 0.00 0.00 89 979.9
20260902081510 72 257 0.0 1.0 0.00 0.00 0.00 90 979.9
20260902081010 72 257 0.0 1.0 0.00 0.00 0.00 89 979.9
20260902080510 72 257 0.0 1.0 0.00 0.00 0.00 89 979.9
20260902080009 72 257 0.0 3.0 0.00 0.00 0.00 89 979.9
20260902075508 73 257 0.0 3.0 0.00 0.00 0.00 89 979.9
20260902075008 73 257 0.0 2.0 0.00 0.00 0.00 89 979.8
20260902074513 73 257 0.0 3.0 0.00 0.00 0.00 89 979.8
20260902074008 73 257 1.0 3.0 0.00 0.00 0.00 89 979.9
20260902073506 73 257 0.0 2.0 0.00 0.00 0.00 89 979.9
20260902073007 73 257 0.0 0.0 0.00 0.00 0.00 89 979.9
20260902072506 73 257 0.0 0.0 0.00 0.00 0.00 89 979.9
20260902072006 73 257 0.0 1.0 0.00 0.00 0.00 89 979.9
20260902071506 73 257 0.0 1.0 0.00 0.00 0.00 89 979.9
20260902071006 73 257 0.0 1.0 0.00 0.00 0.00 89 979.9
20260902070505 73 257 0.0 0.0 0.00 0.00 0.00 88 979.9
20260902070007 73 257 0.0 0.0 0.00 0.00 0.00 88 979.8
20260902065505 73 257 0.0 2.0 0.00 0.00 0.00 88 979.9
20260902065004 73 257 0.0 2.0 0.00 0.00 0.00 88 980.0
20260902064508 73 257 0.0 0.0 0.00 0.00 0.00 87 980.0
20260902064005 73 257 0.0 1.0 0.00 0.00 0.00 87 980.0
20260902063502 74 257 0.0 1.0 0.00 0.00 0.00 88 979.9
20260902063003 74 257 0.0 2.0 0.00 0.00 0.00 88 979.9
20260902062502 74 257 0.0 3.0 0.00 0.00 0.00 88 979.9
20260902062002 74 257 1.0 3.0 0.00 0.00 0.00 88 980.0
20260902061502 74 257 0.0 2.0 0.00 0.00 0.00 88 980.0
20260902061002 74 257 0.0 2.0 0.00 0.00 0.00 88 980.0
20260902060501 74 257 0.0 0.0 0.00 0.00 0.00 88 980.0
20260902060001 74 257 0.0 1.0 0.00 0.00 0.00 88 980.0
20260902055600 74 257 0.0 1.0 0.00 0.00 0.00 88 980.0
20260902055100 74 257 0.0 0.0 0.00 0.00 0.00 88 979.9
20260902054559 74 257 0.0 0.0 0.00 0.00 0.00 88 979.8
20260902054058 74 257 0.0 0.0 0.00 0.00 0.00 88 979.7
20260902053558 74 257 0.0 0.0 0.00 0.00 0.00 87 979.6
20260902053100 74 257 0.0 0.0 0.00 0.00 0.00 87 979.6
20260902052555 74 257 0.0 0.0 0.00 0.00 0.00 87 979.5
20260902052054 74 257 0.0 0.0 0.00 0.00 0.00 87 979.4
20260902051554 74 257 0.0 2.0 0.00 0.00 0.00 87 979.3
20260902051053 74 257 0.0 2.0 0.00 0.00 0.00 87 979.2
20260902050553 74 257 0.0 4.0 0.00 0.00 0.00 87 979.2
20260902050053 74 257 1.0 4.0 0.00 0.00 0.00 87 979.2
20260902045556 75 257 1.0 3.0 0.00 0.00 0.00 87 979.2
20260902045057 74 257 0.0 0.0 0.00 0.00 0.00 87 979.1
20260902044556 74 257 0.0 0.0 0.00 0.00 0.00 86 979.1
20260902044051 74 257 0.0 0.0 0.00 0.00 0.00 86 979.2
20260902043550 75 257 0.0 0.0 0.00 0.00 0.00 85 979.2
20260902043049 75 257 0.0 0.0 0.00 0.00 0.00 85 979.2
20260902042549 75 257 0.0 0.0 0.00 0.00 0.00 85 979.1
20260902042048 75 257 0.0 0.0 0.00 0.00 0.00 85 979.1
20260902041556 75 257 0.0 0.0 0.00 0.00 0.00 85 979.1
20260902041047 75 257 0.0 0.0 0.00 0.00 0.00 85 979.1
20260902040547 75 257 0.0 0.0 0.00 0.00 0.00 85 979.1
20260902040045 75 257 0.0 0.0 0.00 0.00 0.00 85 979.1
20260902035547 75 257 0.0 0.0 0.00 0.00 0.00 84 979.1
20260902035045 75 257 0.0 2.0 0.00 0.00 0.00 84 979.1
20260902034545 76 257 0.0 3.0 0.00 0.00 0.00 84 979.1
20260902034045 76 257 1.0 3.0 0.00 0.00 0.00 84 979.2
20260902033544 76 257 0.0 2.0 0.00 0.00 0.00 84 979.1
20260902033044 76 257 0.0 2.0 0.00 0.00 0.00 84 979.2
20260902032544 76 257 0.0 0.0 0.00 0.00 0.00 83 979.2
20260902032044 76 257 0.0 3.0 0.00 0.00 0.00 83 979.2
20260902031544 76 257 1.0 3.0 0.00 0.00 0.00 84 979.3
20260902031044 76 257 1.0 3.0 0.00 0.00 0.00 84 979.4
20260902030544 76 257 1.0 2.0 0.00 0.00 0.00 83 979.4
20260902030043 76 257 0.0 0.0 0.00 0.00 0.00 83 979.4
20260902025543 77 257 0.0 0.0 0.00 0.00 0.00 82 979.3
20260902025043 77 257 0.0 0.0 0.00 0.00 0.00 82 979.2
20260902024544 77 257 0.0 0.0 0.00 0.00 0.00 82 979.2
20260902024143 77 257 0.0 2.0 0.00 0.00 0.00 82 979.1
20260902023555 77 257 0.0 2.0 0.00 0.00 0.00 81 979.0
20260902023053 77 257 0.0 2.0 0.00 0.00 0.00 81 978.9
20260902022552 77 257 0.0 0.0 0.00 0.00 0.00 81 978.9
20260902022052 77 257 0.0 1.0 0.00 0.00 0.00 81 979.0
20260902021559 78 257 0.0 1.0 0.00 0.00 0.00 81 979.0
20260902021052 78 257 0.0 1.0 0.00 0.00 0.00 81 979.0
20260902020553 78 257 0.0 0.0 0.00 0.00 0.00 81 978.9
20260902020056 78 257 0.0 0.0 0.00 0.00 0.00 80 979.0
20260902015552 78 257 0.0 0.0 0.00 0.00 0.00 80 978.9
20260902015055 78 257 0.0 2.0 0.00 0.00 0.00 80 978.8
20260902014552 78 257 0.0 2.0 0.00 0.00 0.00 80 978.8
20260902014054 78 257 0.0 2.0 0.00 0.00 0.00 79 978.8
20260902013551 79 257 0.0 0.0 0.00 0.00 0.00 79 978.7
20260902013053 79 257 0.0 0.0 0.00 0.00 0.00 78 978.7
20260902012550 79 257 0.0 0.0 0.00 0.00 0.00 78 978.6
20260902012050 79 257 0.0 0.0 0.00 0.00 0.00 77 978.5
20260902011554 79 257 0.0 0.0 0.00 0.00 0.00 77 978.4
20260902011053 80 257 0.0 0.0 0.00 0.00 0.00 76 978.4
20260902010550 80 257 0.0 1.0 0.00 0.00 0.00 76 978.2
20260902010050 80 257 0.0 1.0 0.00 0.00 0.00 76 978.2
20260902005550 80 257 0.0 0.0 0.00 0.00 0.00 75 978.1
20260902005050 81 257 0.0 0.0 0.00 0.00 0.00 74 978.0
20260902004550 81 257 0.0 0.0 0.00 0.00 0.00 74 978.0
20260902004051 81 257 0.0 0.0 0.00 0.00 0.00 73 977.9
20260902003549 82 257 0.0 0.0 0.00 0.00 0.00 73 977.9
20260902003049 82 257 0.0 0.0 0.00 0.00 0.00 73 977.8
20260902002550 82 257 0.0 3.0 0.00 0.00 0.00 72 977.7
20260902002050 82 257 1.0 4.0 0.00 0.00 0.00 72 977.7
20260902001549 82 257 2.0 4.0 0.00 0.00 0.00 72 977.8
20260902001048 82 257 2.0 4.0 0.00 0.00 0.00 71 977.7
20260902000548 83 261 2.0 4.0 0.00 0.00 0.00 71 977.7
20260902000054 83 261 0.0 1.0 0.00 0.00 0.00 70 977.7
20260901235549 84 261 0.0 1.0 0.00 0.00 0.00 69 977.8
20260901235047 84 261 0.0 0.0 0.00 0.00 0.00 68 977.8
20260901234548 85 261 0.0 0.0 0.00 0.00 0.00 67 977.9
20260901234051 85 261 0.0 0.0 0.00 0.00 0.00 66 977.8
20260901233547 85 261 0.0 0.0 0.00 0.00 0.00 65 977.9
20260901233048 86 261 0.0 0.0 0.00 0.00 0.00 64 977.9
20260901232546 87 261 0.0 0.0 0.00 0.00 0.00 63 977.9
20260901232046 87 261 0.0 0.0 0.00 0.00 0.00 62 977.8
20260901231547 88 261 0.0 1.0 0.00 0.00 0.00 61 977.9
20260901231046 88 261 0.0 1.0 0.00 0.00 0.00 61 978.0
20260901230545 89 261 0.0 2.0 0.00 0.00 0.00 60 978.0
20260901230052 89 261 0.0 0.0 0.00 0.00 0.00 60 978.0
20260901225547 89 261 0.0 2.0 0.00 0.00 0.00 60 978.0
20260901225045 89 261 0.0 2.0 0.00 0.00 0.00 57 978.0
20260901224545 90 261 0.0 3.0 0.00 0.00 0.00 58 978.1
20260901224044 90 261 0.0 2.0 0.00 0.00 0.00 58 978.1
20260901223546 90 261 0.0 2.0 0.00 0.00 0.00 57 978.1
20260901223102 91 261 0.0 3.0 0.00 0.00 0.00 58 978.0
20260901222544 91 261 1.0 3.0 0.00 0.00 0.00 55 977.9
20260901222044 91 260 0.0 2.0 0.00 0.00 0.00 57 977.9
20260901221546 91 260 0.0 2.0 0.00 0.00 0.00 57 977.9
20260901221044 91 260 0.0 6.0 0.00 0.00 0.00 54 977.8
20260901220543 91 271 0.0 3.0 0.00 0.00 0.00 56 977.8
20260901220049 92 229 1.0 3.0 0.00 0.00 0.00 54 977.9
20260901215543 92 229 1.0 2.0 0.00 0.00 0.00 54 977.9
20260901215042 92 229 0.0 4.0 0.00 0.00 0.00 55 978.0
20260901214546 93 229 0.0 4.0 0.00 0.00 0.00 56 978.0
20260901214042 93 241 0.0 4.0 0.00 0.00 0.00 53 978.0
20260901213542 94 241 1.0 4.0 0.00 0.00 0.00 55 978.0
20260901213041 94 241 1.0 5.0 0.00 0.00 0.00 55 978.1
20260901212541 93 242 2.0 5.0 0.00 0.00 0.00 54 978.1
20260901212041 93 270 2.0 7.0 0.00 0.00 0.00 54 978.1
20260901211540 94 260 3.0 7.0 0.00 0.00 0.00 54 978.0
20260901211041 94 238 1.0 5.0 0.00 0.00 0.00 52 978.1
20260901210540 94 238 2.0 4.0 0.00 0.00 0.00 52 978.1
20260901210046 95 239 1.0 3.0 0.00 0.00 0.00 52 978.1
20260901205541 94 238 0.0 4.0 0.00 0.00 0.00 53 978.1
20260901205041 95 273 1.0 4.0 0.00 0.00 0.00 52 978.1